Regional Weather Roundup
Issued by NWS

Home | Current Version | Previous Version | Graphics & Text | Print | Product List | Glossary On
Versions: 1 2 3 4 5 6 7 8 9 10 11 12 13 14 15 16 17 18 19 20 21 22 23 24 25 26 27 28 29 30 31 32 33 34 35 36 37 38 39 40 41 42 43 44 45 46 47 48 49 50
000
ASUS43 KDTX 210110
RWRMI
MICHIGAN HOURLY REGIONAL WEATHER ROUNDUP
NATIONAL WEATHER SERVICE DETROIT/PONTIAC MI
900 PM EDT SUN MAY 20 2018

NOTE: "FAIR" INDICATES FEW OR NO CLOUDS BELOW 12,000 FEET WITH NO
SIGNIFICANT WEATHER AND/OR OBSTRUCTION TO VISIBILITY.

MIZ047>049-052>055-059>063-066>070-074>076-081>083-210200-
SOUTHEAST LOWER MICHIGAN

CITY           SKY/WX    TMP DP  RH WIND       PRES   REMARKS
ADRIAN         CLOUDY    59  58  96 SE7       30.17S FOG
ALMA           FAIR      55  52  90 CALM      30.18F
ANN ARBOR      CLOUDY    60  55  83 N5        30.17S
BAD AXE        FAIR      49  45  86 NE5       30.18F
CARO           FAIR      53  48  83 CALM      30.18R
DETROIT CITY   CLOUDY    57  49  74 E7        30.18S
DETROIT        CLOUDY    59  51  75 E3        30.18S
FLINT          FAIR      56  50  80 E5        30.18S
GROSSE ILE     CLOUDY    57  53  85 CALM      30.17F
HILLSDALE      MOCLDY    59  54  82 CALM      30.15F
HOWELL         CLOUDY    56  52  84 CALM      30.18S

CITY           SKY/WX    TMP DP  RH WIND       PRES   REMARKS
JACKSON        FAIR      57  54  89 E3        30.17S
LAMBERTVILLE   CLOUDY    60  55  83 NE3       30.17S
LANSING        FAIR      54  50  86 E3        30.18S
LAPEER         FAIR      55  49  82 CALM      30.19S
MASON          CLOUDY    56  51  84 NE5       30.17F
MONROE         CLOUDY    57  55  92 E5        30.17S
MT. CLEMENS    MOCLDY    53  50  91 NE9       30.20S
PONTIAC        CLOUDY    57  51  80 CALM      30.17S
PORT HOPE        N/A     47  41  80 CALM      30.18F
PORT HURON     FAIR      48  41  76 CALM      30.20S
TRI CITIES     FAIR      57  49  74 SE5       30.19S
MIDLAND        FAIR      56  49  77 SE3       30.17R
TROY           CLOUDY    59  51  76 NE3       30.20S
SAGINAW HB     FAIR      55  48  76 SE5       30.18R
$$
MIZ043>046-050>051-056>058-064>065-071>073-077>080-210200-
SOUTHWEST LOWER MICHIGAN

CITY           SKY/WX    TMP DP  RH WIND       PRES   REMARKS
BATTLE CREEK   CLOUDY    58  54  86 E8        30.17S
BENTON HARBOR  MOCLDY    56  53  90 CALM      30.15R
BIG RAPIDS     FAIR      58  50  76 SE6       30.15S
COLDWATER      FAIR      59  56  89 E6        30.15F
FREMONT        FAIR      58  54  85 S5        30.16R
HOLLAND        FAIR      60  52  74 E3        30.15F
GRAND RAPIDS   FAIR      58  52  80 E7        30.17S
IONIA          FAIR      56  51  84 E7        30.17S
KALAMAZOO      MOCLDY    58  53  84 NE5       30.17S
LUDINGTON      FAIR      51  43  73 CALM      30.16S
MARSHALL       MOCLDY    57  55  95 CALM      30.16S
MOUNT PLEASANT FAIR      58  51  77 S6        30.17R
MUSKEGON       MOCLDY    55  47  74 CALM      30.16S
SOUTH HAVEN    MOCLDY    56  52  84 CALM      30.15S
$$
MIZ016>042-210200-
NORTHERN LOWER MICHIGAN

CITY           SKY/WX    TMP DP  RH WIND       PRES   REMARKS
ALPENA         FAIR      52  42  69 CALM      30.19R
BEAVER ISLAND  FAIR      48  32  53 W3        30.20F
BELLAIRE       FAIR      53  41  63 CALM      30.18F
CADILLAC       FAIR      56  43  62 N3        30.17R
CHARLEVOIX     FAIR      49  37  64 W3        30.22S
FRANKFORT      FAIR      52  38  59 NE3       30.18S
GAYLORD        FAIR      58  33  39 NE6       30.18S
GRAYLING       FAIR      60  43  53 N7        30.15S
HARBOR SPRINGS FAIR      42  40  91 CALM      30.19F
HOUGHTON LAKE  FAIR      61  45  55 NW5       30.16R
MANISTEE       FAIR      50  43  77 SW5       30.17S
OSCODA         FAIR      50  39  66 CALM      30.19S
PELLSTON       FAIR      56  38  50 NW5       30.19F
ROGERS CITY    FAIR      54  31  41 CALM      30.19S
TRAVERSE CITY  FAIR      49  38  65 N3        30.17F
$$
MIZ007>008-015-210200-
EASTERN UPPER MICHIGAN

CITY           SKY/WX    TMP DP  RH WIND       PRES   REMARKS
KINROSS        FAIR      49  29  46 N7        30.20S
MACKINAC ISLAN FAIR      53  30  42 W6        30.19F
NEWBERRY       FAIR      56  32  40 CALM      30.18F
S. S. MARIE    FAIR      51  30  44 NW8       30.18F
MUNISING         N/A     49  34  56 CALM      30.18F
$$
MIZ004>006-011>014-085-210200-
CENTRAL UPPER MICHIGAN

CITY           SKY/WX    TMP DP  RH WIND       PRES   REMARKS
MANISTIQUE     FAIR      49  34  56 CALM      30.19F
ESCANABA       FAIR      53  34  48 CALM      30.19F
SAWYER-GWINN   CLEAR     63  27  25 E5        30.18F
$$
MIZ001>003-009>011-084-210200-
WESTERN UPPER MICHIGAN

CITY           SKY/WX    TMP DP  RH WIND       PRES   REMARKS
IRON MOUNTAIN  FAIR      65  26  23 E5        30.15F
HOUGHTON       FAIR      61  29  29 NW7       30.17S
COPPER HARBOR    N/A     49  36  61 CALM      30.16F
IRONWOOD       FAIR      62  33  33 N3        30.18F
$$

ABBREVIATIONS USED IN REMARKS
   TC - TEMPERATURE IN CELSIUS
  WCI - WIND CHILL INDEX
   HX - HEAT INDEX
  VSB - VISIBILITY





USA.gov is the U.S. government's official web portal to all federal, state and local government web resources and services.